Wind_Speed
26 23 23 24 25 23 23 25 23 18 20 19 19 19 19 21 22 20 21 24 34 27
21 16 19 21 22 21 21 20 16 15 18 19 20 20 22 23 23 25 25 22 24 27
13 12 15 19 20 19 19 19 18 19 20 21 21 22 21 22 22 20 22 21 19 22
13 12 13 14 16 17 17 19 18 19 21 21 21 21 21 20 19 20 20 20 19 21
12 10 12 13 16 15 15 14 14 20 21 21 21 18 14 19 22 22 24 22 22 23
12 10 10 12 14 15 15 17 21 22 20 20 20 15 19 21 23 24 23 24 21 22
10 9 10 12 14 15 17 18 22 19 18 17 17 15 18 21 23 23 24 25 21 20
9 10 12 13 14 15 16 17 17 17 16 16 16 13 18 20 22 22 21 21 18 19
9 11 11 12 15 14 15 15 16 16 16 16 15 17 17 18 19 16 17 18 20 21
11 11 10 10 13 13 14 15 15 16 15 15 17 17 16 15 15 13 15 16 20 22
12 11 9 9 10 13 14 15 17 15 15 15 17 16 14 14 14 13 13 15 16 19
12 11 10 10 10 12 13 15 17 16 18 15 18 16 15 15 15 16 18 17 14 15
13 11 10 11 9 11 13 14 15 16 17 18 18 17 16 16 17 16 19 20 23 21
15 12 10 10 8 9 12 14 14 14 15 16 17 18 18 17 19 19 16 19 23 21
Wind_Direction
341 342 341 336 327 317 306 306 321 328 327 327 330 326 321 320 322 313 302 309 310 280
343 351 351 352 353 350 352 348 343 343 336 335 335 329 326 321 322 318 317 303 293 297
336 342 358 358 0 357 353 350 347 351 349 344 348 348 342 337 336 334 334 317 307 315
328 323 333 343 351 353 347 349 352 355 351 350 346 345 344 343 345 346 344 338 336 327
329 327 336 341 350 341 338 342 351 351 349 347 348 350 355 348 343 342 335 330 330 318
324 324 330 334 341 343 335 333 329 338 336 337 343 344 346 345 345 345 343 343 335 325
323 321 323 328 329 330 327 336 335 328 328 329 332 333 337 341 342 340 341 341 339 336
314 317 329 322 328 328 330 329 324 324 324 329 333 322 327 330 334 335 334 339 339 332
317 315 326 324 328 328 325 322 324 322 325 327 328 328 324 324 334 330 332 330 332 333
298 317 322 327 320 317 319 322 328 322 323 327 331 332 328 327 333 330 330 331 336 332
283 302 311 315 311 311 315 323 326 323 323 328 332 337 333 331 330 326 325 325 327 326
264 283 294 295 302 306 314 322 325 320 319 326 333 338 335 333 331 331 328 328 326 321
248 260 272 281 292 309 312 314 320 328 338 332 333 337 338 338 337 332 332 330 325 325
234 245 253 263 261 290 305 307 313 322 328 333 337 341 342 340 339 340 331 329 323 321
Height
797 793 790 787 784 778 774 770 766 764 764 760 755 751 748 745 742 738 732 730 731 726
794 791 788 784 780 775 771 767 766 763 761 758 752 749 746 742 736 734 729 725 724 721
791 788 784 782 778 775 770 768 765 761 759 754 749 745 743 740 734 731 728 724 720 718
785 783 780 780 777 773 769 766 763 759 755 751 748 745 741 737 733 728 725 722 717 713
781 779 778 776 773 772 768 764 762 758 754 752 748 744 740 736 733 728 723 719 714 712
778 777 775 773 770 769 766 762 760 756 754 750 746 742 739 736 732 727 721 716 713 709
775 774 771 769 768 766 764 760 756 755 752 748 744 740 737 734 730 726 721 717 712 707
773 771 768 766 763 762 760 758 756 753 750 745 741 738 736 732 728 723 719 715 712 710
767 766 763 761 760 758 758 756 753 751 748 744 740 736 734 730 726 723 719 716 712 708
762 760 759 756 757 757 755 753 750 748 746 742 738 734 731 728 724 721 718 715 711 707
758 757 755 753 754 754 753 749 746 745 743 739 736 731 728 726 722 719 717 714 711 707
753 753 752 750 750 750 748 745 743 741 739 736 732 728 725 723 719 716 713 711 710 707
746 747 746 746 746 746 745 742 740 737 735 732 728 725 722 719 716 713 709 705 704 702
739 739 739 740 741 741 741 740 738 734 732 729 726 721 718 716 712 709 706 702 699 696